User: anonymous   Login
Location: Unspecified
(0.0000°N, 0.0000°E)
Time: 15:24:38
(UTC+00:00)
Language:

SEEDS - Orbit

View from above orbital plane
View from above orbital plane
View from above satellite
View from above satellite

Ground track
Ground track

The orbit data is extracted from the following two-line orbital elements,

1 32791U 08021J   17228.80832893 +.00000360 +00000-0 +42486-4 0  9991
2 32791 097.5605 254.8562 0012263 316.8495 043.1762 14.90270662504096
Epoch (UTC): 16 August 2017 19:23:59
Eccentricity: 0.0012263
inclination: 97.5605°
perigee height: 588 km
apogee height: 605 km
right ascension of ascending node: 254.8562°
argument of perigee: 316.8495°
revolutions per day: 14.90270662
mean anomaly at epoch: 43.1762°
orbit number at epoch: 50409

The dashed part of the orbit path shows where the satellite is in the earth's shadow,  

DLR